Lid_Strength_Index
2 2 1 1 1 1 1 -0 0 1 1 -0 -0 -1 -1 -2 -2 -2 -2 -2 -1 -2 -1 -1 -1 -1 1 6 7 3 -1 -2 -0 1 3 4 5 7 9 8 7 8 7 6 5 6 7
2 2 2 2 2 1 1 1 1 1 0 -0 -0 -0 -1 -2 -2 -2 -1 -1 -1 -1 -1 -1 -1 -1 3 8 1 3 2 2 1 2 3 3 5 4 7 7 8 7 7 6 6 6 6
2 2 2 2 2 1 1 1 1 1 -0 -0 -0 0 -1 -2 -1 -1 -1 -1 -1 -1 -1 -1 -1 0 4 5 1 -0 0 2 1 2 4 3 3 5 6 8 6 6 9 8 7 7 7
2 2 2 2 1 2 1 1 1 0 -0 -1 -0 -0 -1 -2 -1 -1 -1 -1 -1 -1 -1 -1 -1 1 6 -0 -0 1 0 3 2 1 2 1 2 4 6 5 7 9 9 13 8 7 7
3 2 2 2 2 2 1 1 1 0 -0 -1 -1 -1 -1 -1 -1 -1 -1 -1 -1 -1 -1 -1 1 3 7 -1 2 1 1 4 3 2 2 2 3 6 6 10 12 11 15 13 11 7 8
3 2 2 2 2 2 1 1 1 0 -0 -1 -1 -1 -1 -2 -1 -1 -1 -1 -1 -1 -0 -0 1 6 4 5 2 2 1 2 4 4 5 6 7 10 10 12 17 15 14 12 12 9 8
3 2 2 2 2 2 2 2 1 1 0 -0 -1 -1 -0 -1 -1 -1 -0 1 4 5 3 6 5 6 4 2 1 3 2 3 4 6 11 8 11 14 11 10 10 10 11 12 10 8 9
3 3 2 2 2 2 2 2 2 1 0 0 -0 -1 -0 -0 0 0 -0 3 3 3 7 3 4 4 3 2 6 4 2 7 8 11 9 11 13 9 8 9 10 10 11 12 9 8 9
3 3 3 2 3 2 2 2 2 1 1 0 -0 -0 -0 -1 -0 0 3 3 0 1 8 6 5 5 5 5 7 7 4 6 9 11 10 12 11 8 9 10 11 10 12 11 12 10 10
4 3 3 3 3 2 2 2 3 2 1 1 0 0 -0 -0 2 2 4 1 0 1 12 11 8 6 5 5 8 4 3 6 9 11 10 11 9 10 11 12 10 13 9 9 11 13 16
4 3 3 3 3 2 2 3 3 2 2 1 1 0 0 0 2 4 3 1 1 4 20 9 8 2 4 8 7 7 3 6 10 10 10 13 11 11 12 12 9 11 8 10 11 13 14
4 4 3 3 3 3 2 3 3 3 2 1 1 1 1 1 1 2 1 2 4 13 20 12 8 9 9 8 8 6 7 5 5 9 10 11 8 9 10 9 9 8 10 11 12 13 19
4 4 4 3 3 3 3 3 3 3 2 1 1 1 2 2 4 1 2 5 14 18 10 13 12 10 10 11 10 9 10 11 12 15 15 12 12 10 9 12 10 10 13 19 20 20 20
5 4 4 4 3 3 3 2 3 3 3 2 1 1 1 2 1 2 4 9 17 13 13 9 10 9 12 10 10 10 11 13 10 11 14 16 17 12 10 11 13 13 14 19 22 22 19
5 5 4 4 3 3 3 2 3 3 3 2 1 1 2 1 1 2 6 14 15 13 11 11 10 12 12 10 10 10 11 12 11 10 15 16 16 11 10 9 10 13 15 12 16 16 18
5 5 4 4 3 3 3 3 3 3 2 2 3 3 2 1 1 4 9 13 12 8 8 8 13 10 13 11 11 11 11 9 10 9 8 11 17 12 11 9 10 11 10 16 16 21 21
5 5 4 4 4 3 4 3 3 3 2 2 3 6 2 0 2 6 13 11 9 6 7 9 10 11 11 11 10 11 11 9 8 9 9 9 12 14 11 13 13 13 14 13 14 16 20
5 5 5 4 4 4 4 3 3 3 3 3 5 9 2 1 9 8 11 9 7 7 6 7 8 9 10 10 11 11 12 10 7 8 10 9 12 15 14 11 10 11 12 12 18 17 18
5 5 5 4 4 4 4 4 3 3 3 5 7 7 1 2 12 12 8 8 7 8 7 8 9 8 8 10 12 10 10 7 7 8 10 9 14 18 17 14 12 14 12 12 13 14 17
5 5 5 5 4 4 4 4 3 3 3 4 6 10 6 5 6 9 9 9 9 7 7 7 8 7 9 10 9 11 10 8 7 7 6 7 12 14 18 16 13 16 13 12 15 19 17
5 5 5 5 4 4 4 4 4 3 3 4 6 8 8 11 9 8 8 9 10 10 7 7 8 8 9 11 11 11 10 9 8 7 8 9 14 13 13 12 11 13 13 13 16 15 19
5 5 5 5 5 4 4 3 3 3 3 5 9 9 8 9 8 8 8 9 10 9 8 9 9 8 9 10 10 11 10 10 10 9 10 9 14 14 17 12 13 14 12 12 13 13 14
5 5 5 5 5 4 4 4 4 4 3 6 6 6 7 9 9 10 9 9 9 8 7 7 8 8 9 8 8 8 8 8 9 10 11 11 13 16 18 13 14 17 14 13 12 11 12
4 4 5 4 5 4 4 3 4 4 4 5 6 7 9 11 10 9 9 8 8 8 9 7 7 9 7 6 7 8 9 9 9 10 8 11 12 14 17 16 22 13 9 10 11 10 10
3 4 4 4 4 4 4 3 3 3 4 6 5 7 9 12 11 11 10 10 7 7 8 8 7 6 5 7 10 11 11 11 10 9 9 9 11 15 17 17 14 12 11 11 12 12 9
2 3 3 4 3 3 3 3 2 3 4 5 5 5 7 11 11 9 11 10 11 9 9 8 5 4 6 9 11 14 16 13 14 13 10 10 10 13 15 18 20 13 10 8 9 15 8
1 2 2 2 2 2 3 2 2 2 3 4 5 5 7 11 10 9 11 10 8 9 9 8 8 8 6 11 14 15 14 11 14 14 14 13 13 16 15 16 14 9 8 9 16 14 8
0 1 1 1 2 2 2 2 2 2 2 3 5 4 7 10 10 9 9 11 10 9 11 8 9 8 9 12 13 13 13 11 13 12 12 13 15 15 14 17 18 8 9 12 10 8 8
0 0 0 1 1 2 2 2 2 2 1 2 5 3 4 8 10 7 8 9 9 9 11 10 9 8 8 11 10 10 12 12 12 14 11 14 12 14 13 14 9 8 8 7 7 7 8